Time,TemperatureF,DewpointF,PressureIn,WindDirection,WindDirectionDegrees,WindSpeedMPH,WindSpeedGustMPH,Humidity,HourlyPrecipIn,Conditions,Clouds,dailyrainin,SolarRadiationWatts/m^2,SoftwareType,DateUTC
2013-01-03 00:01:00,56.9,24.1,29.68,East,89,8.0,11.0,28,0.00,,,0.00,0,HR-IXPWINDi_r2_v1.2.,2013-01-03 08:01:00,
2013-01-03 00:06:00,56.9,25.0,29.68,East,91,8.0,11.0,29,0.00,,,0.00,0,HR-IXPWINDi_r2_v1.2.,2013-01-03 08:06:00,
2013-01-03 00:12:00,56.8,24.9,29.68,East,80,9.0,11.0,29,0.00,,,0.00,0,HR-IXPWINDi_r2_v1.2.,2013-01-03 08:12:00,
2013-01-03 00:17:00,56.8,24.0,29.68,East,82,10.0,11.0,28,0.00,,,0.00,0,HR-IXPWINDi_r2_v1.2.,2013-01-03 08:17:00,
2013-01-03 00:22:00,56.8,24.0,29.68,East,93,9.0,11.0,28,0.00,,,0.00,0,HR-IXPWINDi_r2_v1.2.,2013-01-03 08:22:00,
2013-01-03 00:27:00,56.7,24.0,29.67,East,90,10.0,11.0,28,0.00,,,0.00,0,HR-IXPWINDi_r2_v1.2.,2013-01-03 08:27:00,
2013-01-03 00:32:00,56.7,24.0,29.67,East,101,9.0,10.0,28,0.00,,,0.00,0,HR-IXPWINDi_r2_v1.2.,2013-01-03 08:32:00,
2013-01-03 00:38:00,56.6,23.9,29.68,East,90,9.0,11.0,28,0.00,,,0.00,0,HR-IXPWINDi_r2_v1.2.,2013-01-03 08:38:00,
2013-01-03 00:43:00,56.6,23.0,29.68,East,93,7.0,11.0,27,0.00,,,0.00,0,HR-IXPWINDi_r2_v1.2.,2013-01-03 08:43:00,
2013-01-03 00:48:00,56.8,23.2,29.67,East,90,9.0,10.0,27,0.00,,,0.00,0,HR-IXPWINDi_r2_v1.2.,2013-01-03 08:48:00,
2013-01-03 00:53:00,56.7,23.1,29.67,East,96,10.0,10.0,27,0.00,,,0.00,0,HR-IXPWINDi_r2_v1.2.,2013-01-03 08:53:00,
2013-01-03 00:59:00,56.6,23.0,29.67,East,96,10.0,13.0,27,0.00,,,0.00,0,HR-IXPWINDi_r2_v1.2.,2013-01-03 08:59:00,
2013-01-03 01:04:00,56.6,22.1,29.67,East,96,8.0,13.0,26,0.00,,,0.00,0,HR-IXPWINDi_r2_v1.2.,2013-01-03 09:04:00,
2013-01-03 01:09:00,56.7,22.2,29.67,East,96,10.0,11.0,26,0.00,,,0.00,0,HR-IXPWINDi_r2_v1.2.,2013-01-03 09:09:00,
2013-01-03 01:15:00,56.9,22.4,29.67,East,89,8.0,10.0,26,0.00,,,0.00,0,HR-IXPWINDi_r2_v1.2.,2013-01-03 09:15:00,
2013-01-03 01:20:00,57.2,21.7,29.67,East,92,10.0,11.0,25,0.00,,,0.00,0,HR-IXPWINDi_r2_v1.2.,2013-01-03 09:20:00,
2013-01-03 01:25:00,57.5,21.9,29.68,East,97,9.0,12.0,25,0.00,,,0.00,0,HR-IXPWINDi_r2_v1.2.,2013-01-03 09:25:00,
2013-01-03 01:30:00,57.2,22.6,29.68,East,88,9.0,12.0,26,0.00,,,0.00,0,HR-IXPWINDi_r2_v1.2.,2013-01-03 09:30:00,
2013-01-03 01:35:00,57.0,22.4,29.68,East,90,9.0,11.0,26,0.00,,,0.00,0,HR-IXPWINDi_r2_v1.2.,2013-01-03 09:35:00,
2013-01-03 01:40:00,57.0,21.5,29.68,East,88,8.0,11.0,25,0.00,,,0.00,0,HR-IXPWINDi_r2_v1.2.,2013-01-03 09:40:00,
2013-01-03 01:45:00,57.0,21.5,29.68,East,82,8.0,11.0,25,0.00,,,0.00,0,HR-IXPWINDi_r2_v1.2.,2013-01-03 09:45:00,
2013-01-03 01:50:00,56.8,22.3,29.68,East,97,10.0,12.0,26,0.00,,,0.00,0,HR-IXPWINDi_r2_v1.2.,2013-01-03 09:50:00,
2013-01-03 01:56:00,56.6,22.1,29.68,East,92,10.0,12.0,26,0.00,,,0.00,0,HR-IXPWINDi_r2_v1.2.,2013-01-03 09:56:00,
2013-01-03 02:01:00,56.4,22.8,29.68,East,82,8.0,13.0,27,0.00,,,0.00,0,HR-IXPWINDi_r2_v1.2.,2013-01-03 10:01:00,
2013-01-03 02:06:00,56.5,22.9,29.69,ENE,76,7.0,13.0,27,0.00,,,0.00,0,HR-IXPWINDi_r2_v1.2.,2013-01-03 10:06:00,
2013-01-03 02:11:00,56.6,22.1,29.69,ENE,66,5.0,9.0,26,0.00,,,0.00,0,HR-IXPWINDi_r2_v1.2.,2013-01-03 10:11:00,
2013-01-03 02:16:00,56.6,23.9,29.69,ENE,76,7.0,9.0,28,0.00,,,0.00,0,HR-IXPWINDi_r2_v1.2.,2013-01-03 10:16:00,
2013-01-03 02:21:00,56.4,22.8,29.69,ENE,67,7.0,9.0,27,0.00,,,0.00,0,HR-IXPWINDi_r2_v1.2.,2013-01-03 10:21:00,
2013-01-03 02:27:00,56.4,23.7,29.69,NE,53,5.0,9.0,28,0.00,,,0.00,0,HR-IXPWINDi_r2_v1.2.,2013-01-03 10:27:00,
2013-01-03 02:32:00,56.2,23.5,29.69,NE,51,3.0,9.0,28,0.00,,,0.00,0,HR-IXPWINDi_r2_v1.2.,2013-01-03 10:32:00,
2013-01-03 02:37:00,56.0,24.2,29.69,ENE,65,3.0,7.0,29,0.00,,,0.00,0,HR-IXPWINDi_r2_v1.2.,2013-01-03 10:37:00,
2013-01-03 02:43:00,55.9,23.3,29.69,NNE,28,3.0,5.0,28,0.00,,,0.00,0,HR-IXPWINDi_r2_v1.2.,2013-01-03 10:43:00,
2013-01-03 02:48:00,55.7,24.7,29.69,NE,34,4.0,5.0,30,0.00,,,0.00,0,HR-IXPWINDi_r2_v1.2.,2013-01-03 10:48:00,
2013-01-03 02:53:00,55.4,24.5,29.69,NE,38,3.0,5.0,30,0.00,,,0.00,0,HR-IXPWINDi_r2_v1.2.,2013-01-03 10:53:00,
2013-01-03 02:58:00,55.3,24.4,29.69,ENE,74,4.0,7.0,30,0.00,,,0.00,0,HR-IXPWINDi_r2_v1.2.,2013-01-03 10:58:00,
2013-01-03 03:03:00,55.4,24.5,29.69,East,82,7.0,9.0,30,0.00,,,0.00,0,HR-IXPWINDi_r2_v1.2.,2013-01-03 11:03:00,
2013-01-03 03:08:00,55.7,24.7,29.69,ENE,75,7.0,9.0,30,0.00,,,0.00,0,HR-IXPWINDi_r2_v1.2.,2013-01-03 11:08:00,
2013-01-03 03:14:00,55.8,24.0,29.69,ENE,71,4.0,10.0,29,0.00,,,0.00,0,HR-IXPWINDi_r2_v1.2.,2013-01-03 11:14:00,
2013-01-03 03:19:00,56.0,23.3,29.69,NNE,24,5.0,10.0,28,0.00,,,0.00,0,HR-IXPWINDi_r2_v1.2.,2013-01-03 11:19:00,
2013-01-03 03:24:00,55.9,24.1,29.70,NE,45,4.0,8.0,29,0.00,,,0.00,0,HR-IXPWINDi_r2_v1.2.,2013-01-03 11:24:00,
2013-01-03 03:29:00,55.8,24.0,29.70,NE,46,5.0,6.0,29,0.00,,,0.00,0,HR-IXPWINDi_r2_v1.2.,2013-01-03 11:29:00,
2013-01-03 03:34:00,55.5,23.8,29.70,NNE,23,6.0,7.0,29,0.00,,,0.00,0,HR-IXPWINDi_r2_v1.2.,2013-01-03 11:34:00,
2013-01-03 03:39:00,55.2,24.3,29.70,NNE,27,5.0,7.0,30,0.00,,,0.00,0,HR-IXPWINDi_r2_v1.2.,2013-01-03 11:39:00,
2013-01-03 03:44:00,54.8,24.7,29.70,NNE,26,4.0,7.0,31,0.00,,,0.00,0,HR-IXPWINDi_r2_v1.2.,2013-01-03 11:44:00,
2013-01-03 03:50:00,54.5,24.5,29.70,NNE,28,5.0,6.0,31,0.00,,,0.00,0,HR-IXPWINDi_r2_v1.2.,2013-01-03 11:50:00,
2013-01-03 03:55:00,54.1,24.9,29.70,NE,55,5.0,7.0,32,0.00,,,0.00,0,HR-IXPWINDi_r2_v1.2.,2013-01-03 11:55:00,
2013-01-03 04:00:00,53.7,26.0,29.70,NE,41,5.0,7.0,34,0.00,,,0.00,0,HR-IXPWINDi_r2_v1.2.,2013-01-03 12:00:00,
2013-01-03 04:05:00,53.3,26.3,29.70,NE,55,4.0,7.0,35,0.00,,,0.00,0,HR-IXPWINDi_r2_v1.2.,2013-01-03 12:05:00,
2013-01-03 04:11:00,53.1,26.2,29.70,ENE,63,3.0,7.0,35,0.00,,,0.00,0,HR-IXPWINDi_r2_v1.2.,2013-01-03 12:11:00,
2013-01-03 04:16:00,53.1,26.2,29.70,East,80,5.0,5.0,35,0.00,,,0.00,0,HR-IXPWINDi_r2_v1.2.,2013-01-03 12:16:00,
2013-01-03 04:21:00,53.3,26.3,29.70,East,81,6.0,9.0,35,0.00,,,0.00,0,HR-IXPWINDi_r2_v1.2.,2013-01-03 12:21:00,
2013-01-03 04:26:00,53.2,26.2,29.70,East,82,8.0,9.0,35,0.00,,,0.00,0,HR-IXPWINDi_r2_v1.2.,2013-01-03 12:26:00,
2013-01-03 04:31:00,52.8,26.6,29.70,East,85,10.0,11.0,36,0.00,,,0.00,0,HR-IXPWINDi_r2_v1.2.,2013-01-03 12:31:00,
2013-01-03 04:36:00,52.6,27.1,29.70,East,82,11.0,11.0,37,0.00,,,0.00,0,HR-IXPWINDi_r2_v1.2.,2013-01-03 12:36:00,
2013-01-03 04:41:00,52.6,27.7,29.69,East,87,11.0,13.0,38,0.00,,,0.00,0,HR-IXPWINDi_r2_v1.2.,2013-01-03 12:41:00,
2013-01-03 04:46:00,52.4,27.5,29.69,East,95,10.0,13.0,38,0.00,,,0.00,0,HR-IXPWINDi_r2_v1.2.,2013-01-03 12:46:00,
2013-01-03 04:51:00,52.2,27.3,29.69,East,99,13.0,14.0,38,0.00,,,0.00,0,HR-IXPWINDi_r2_v1.2.,2013-01-03 12:51:00,
2013-01-03 04:56:00,52.0,26.5,29.70,ESE,104,11.0,14.0,37,0.00,,,0.00,0,HR-IXPWINDi_r2_v1.2.,2013-01-03 12:56:00,
2013-01-03 05:02:00,52.0,25.9,29.70,East,86,11.0,14.0,36,0.00,,,0.00,0,HR-IXPWINDi_r2_v1.2.,2013-01-03 13:02:00,
2013-01-03 05:07:00,52.4,24.8,29.70,East,95,10.0,13.0,34,0.00,,,0.00,0,HR-IXPWINDi_r2_v1.2.,2013-01-03 13:07:00,
2013-01-03 05:12:00,52.8,24.5,29.69,East,95,11.0,14.0,33,0.00,,,0.00,0,HR-IXPWINDi_r2_v1.2.,2013-01-03 13:12:00,
2013-01-03 05:17:00,52.8,24.5,29.70,East,89,13.0,14.0,33,0.00,,,0.00,0,HR-IXPWINDi_r2_v1.2.,2013-01-03 13:17:00,
2013-01-03 05:23:00,52.7,24.4,29.69,East,97,11.0,14.0,33,0.00,,,0.00,0,HR-IXPWINDi_r2_v1.2.,2013-01-03 13:23:00,
2013-01-03 05:28:00,52.6,24.3,29.69,East,89,14.0,17.0,33,0.00,,,0.00,0,HR-IXPWINDi_r2_v1.2.,2013-01-03 13:28:00,
2013-01-03 05:33:00,52.8,24.5,29.69,East,100,14.0,17.0,33,0.00,,,0.00,0,HR-IXPWINDi_r2_v1.2.,2013-01-03 13:33:00,
2013-01-03 05:39:00,53.1,24.0,29.70,East,92,13.0,16.0,32,0.00,,,0.00,0,HR-IXPWINDi_r2_v1.2.,2013-01-03 13:39:00,
2013-01-03 05:44:00,53.8,23.1,29.70,East,88,13.0,15.0,30,0.00,,,0.00,0,HR-IXPWINDi_r2_v1.2.,2013-01-03 13:44:00,
2013-01-03 05:49:00,53.8,23.9,29.70,East,88,14.0,16.0,31,0.00,,,0.00,0,HR-IXPWINDi_r2_v1.2.,2013-01-03 13:49:00,
2013-01-03 05:54:00,54.3,22.7,29.70,East,92,11.0,16.0,29,0.00,,,0.00,0,HR-IXPWINDi_r2_v1.2.,2013-01-03 13:54:00,
2013-01-03 05:59:00,54.3,22.7,29.70,East,89,13.0,14.0,29,0.00,,,0.00,0,HR-IXPWINDi_r2_v1.2.,2013-01-03 13:59:00,
2013-01-03 06:04:00,54.4,22.8,29.70,East,94,10.0,14.0,29,0.00,,,0.00,0,HR-IXPWINDi_r2_v1.2.,2013-01-03 14:04:00,
2013-01-03 06:09:00,54.2,23.4,29.70,East,94,11.0,14.0,30,0.00,,,0.00,0,HR-IXPWINDi_r2_v1.2.,2013-01-03 14:09:00,
2013-01-03 06:14:00,54.1,24.1,29.70,East,93,8.0,11.0,31,0.00,,,0.00,0,HR-IXPWINDi_r2_v1.2.,2013-01-03 14:14:00,
2013-01-03 06:20:00,53.9,24.0,29.70,East,90,9.0,13.0,31,0.00,,,0.00,0,HR-IXPWINDi_r2_v1.2.,2013-01-03 14:20:00,
2013-01-03 06:25:00,53.6,25.2,29.70,East,92,10.0,13.0,33,0.00,,,0.00,0,HR-IXPWINDi_r2_v1.2.,2013-01-03 14:25:00,
2013-01-03 06:30:00,53.5,25.1,29.70,East,88,11.0,13.0,33,0.00,,,0.00,0,HR-IXPWINDi_r2_v1.2.,2013-01-03 14:30:00,
2013-01-03 06:35:00,53.4,25.0,29.70,East,88,13.0,13.0,33,0.00,,,0.00,0,HR-IXPWINDi_r2_v1.2.,2013-01-03 14:35:00,
2013-01-03 06:41:00,53.2,25.5,29.71,East,88,10.0,13.0,34,0.00,,,0.00,0,HR-IXPWINDi_r2_v1.2.,2013-01-03 14:41:00,
2013-01-03 06:46:00,53.2,26.2,29.71,East,93,11.0,13.0,35,0.00,,,0.00,0,HR-IXPWINDi_r2_v1.2.,2013-01-03 14:46:00,
2013-01-03 06:51:00,53.0,26.1,29.70,East,95,11.0,13.0,35,0.00,,,0.00,0,HR-IXPWINDi_r2_v1.2.,2013-01-03 14:51:00,
2013-01-03 06:56:00,53.1,26.2,29.71,East,93,11.0,13.0,35,0.00,,,0.00,0,HR-IXPWINDi_r2_v1.2.,2013-01-03 14:56:00,
2013-01-03 07:02:00,53.1,26.8,29.70,East,96,14.0,15.0,36,0.00,,,0.00,0,HR-IXPWINDi_r2_v1.2.,2013-01-03 15:02:00,
2013-01-03 07:07:00,53.4,26.4,29.70,ESE,107,11.0,15.0,35,0.00,,,0.00,5,HR-IXPWINDi_r2_v1.2.,2013-01-03 15:07:00,
2013-01-03 07:12:00,53.7,26.7,29.71,ESE,105,10.0,14.0,35,0.00,,,0.00,7,HR-IXPWINDi_r2_v1.2.,2013-01-03 15:12:00,
2013-01-03 07:17:00,54.1,27.7,29.71,ESE,116,9.0,13.0,36,0.00,,,0.00,11,HR-IXPWINDi_r2_v1.2.,2013-01-03 15:17:00,
2013-01-03 07:22:00,54.3,27.9,29.72,ESE,117,4.0,11.0,36,0.00,,,0.00,12,HR-IXPWINDi_r2_v1.2.,2013-01-03 15:22:00,
2013-01-03 07:27:00,54.9,27.0,29.72,East,98,7.0,10.0,34,0.00,,,0.00,16,HR-IXPWINDi_r2_v1.2.,2013-01-03 15:27:00,
2013-01-03 07:33:00,55.5,26.8,29.72,East,92,2.0,7.0,33,0.00,,,0.00,18,HR-IXPWINDi_r2_v1.2.,2013-01-03 15:33:00,
2013-01-03 07:38:00,55.8,24.8,29.72,NNW,338,0.0,7.0,30,0.00,,,0.00,21,HR-IXPWINDi_r2_v1.2.,2013-01-03 15:38:00,
2013-01-03 07:43:00,55.9,24.1,29.72,NNW,344,1.0,5.0,29,0.00,,,0.00,51,HR-IXPWINDi_r2_v1.2.,2013-01-03 15:43:00,
2013-01-03 07:48:00,56.2,23.5,29.72,North,350,0.0,2.0,28,0.00,,,0.00,63,HR-IXPWINDi_r2_v1.2.,2013-01-03 15:48:00,
2013-01-03 07:53:00,56.2,23.5,29.73,WNW,284,2.0,3.0,28,0.00,,,0.00,79,HR-IXPWINDi_r2_v1.2.,2013-01-03 15:53:00,
2013-01-03 07:59:00,56.0,25.8,29.73,West,267,2.0,3.0,31,0.00,,,0.00,97,HR-IXPWINDi_r2_v1.2.,2013-01-03 15:59:00,
2013-01-03 08:04:00,55.8,26.4,29.73,West,267,2.0,3.0,32,0.00,,,0.00,113,HR-IXPWINDi_r2_v1.2.,2013-01-03 16:04:00,
2013-01-03 08:09:00,55.5,26.8,29.73,West,267,1.0,3.0,33,0.00,,,0.00,130,HR-IXPWINDi_r2_v1.2.,2013-01-03 16:09:00,
2013-01-03 08:14:00,54.7,27.6,29.74,WSW,240,1.0,3.0,35,0.00,,,0.00,153,HR-IXPWINDi_r2_v1.2.,2013-01-03 16:14:00,
2013-01-03 08:19:00,54.0,26.9,29.74,WSW,237,1.0,3.0,35,0.00,,,0.00,172,HR-IXPWINDi_r2_v1.2.,2013-01-03 16:19:00,
2013-01-03 08:25:00,53.7,27.4,29.74,WSW,254,2.0,3.0,36,0.00,,,0.00,190,HR-IXPWINDi_r2_v1.2.,2013-01-03 16:25:00,
2013-01-03 08:30:00,53.9,26.9,29.74,WSW,254,0.0,3.0,35,0.00,,,0.00,207,HR-IXPWINDi_r2_v1.2.,2013-01-03 16:30:00,
2013-01-03 08:35:00,54.4,27.3,29.74,WSW,254,0.0,3.0,35,0.00,,,0.00,225,HR-IXPWINDi_r2_v1.2.,2013-01-03 16:35:00,
2013-01-03 08:40:00,54.6,26.8,29.74,WSW,254,0.0,1.0,34,0.00,,,0.00,244,HR-IXPWINDi_r2_v1.2.,2013-01-03 16:40:00,
2013-01-03 08:45:00,54.4,27.3,29.74,ENE,71,3.0,3.0,35,0.00,,,0.00,260,HR-IXPWINDi_r2_v1.2.,2013-01-03 16:45:00,
2013-01-03 08:51:00,54.1,27.7,29.74,East,84,5.0,6.0,36,0.00,,,0.00,276,HR-IXPWINDi_r2_v1.2.,2013-01-03 16:51:00,
2013-01-03 08:56:00,53.0,29.3,29.74,East,91,9.0,9.0,40,0.00,,,0.00,288,HR-IXPWINDi_r2_v1.2.,2013-01-03 16:56:00,
2013-01-03 09:01:00,51.2,29.4,29.74,East,96,10.0,11.0,43,0.00,,,0.00,302,HR-IXPWINDi_r2_v1.2.,2013-01-03 17:01:00,
2013-01-03 09:06:00,51.9,27.7,29.74,East,98,11.0,13.0,39,0.00,,,0.00,316,HR-IXPWINDi_r2_v1.2.,2013-01-03 17:06:00,
2013-01-03 09:11:00,52.8,29.7,29.74,ESE,109,8.0,13.0,41,0.00,,,0.00,330,HR-IXPWINDi_r2_v1.2.,2013-01-03 17:11:00,
2013-01-03 09:16:00,53.8,28.8,29.75,ESE,117,7.0,13.0,38,0.00,,,0.00,343,HR-IXPWINDi_r2_v1.2.,2013-01-03 17:16:00,
2013-01-03 09:21:00,54.5,30.0,29.75,ENE,75,4.0,9.0,39,0.00,,,0.00,355,HR-IXPWINDi_r2_v1.2.,2013-01-03 17:21:00,
2013-01-03 09:27:00,53.8,31.8,29.76,ENE,76,5.0,7.0,43,0.00,,,0.00,367,HR-IXPWINDi_r2_v1.2.,2013-01-03 17:27:00,
2013-01-03 09:32:00,53.9,30.7,29.76,East,80,9.0,10.0,41,0.00,,,0.00,381,HR-IXPWINDi_r2_v1.2.,2013-01-03 17:32:00,
2013-01-03 09:37:00,53.7,28.7,29.76,East,88,10.0,11.0,38,0.00,,,0.00,394,HR-IXPWINDi_r2_v1.2.,2013-01-03 17:37:00,
2013-01-03 09:42:00,53.8,30.6,29.76,East,94,6.0,11.0,41,0.00,,,0.00,406,HR-IXPWINDi_r2_v1.2.,2013-01-03 17:42:00,
2013-01-03 09:48:00,53.9,30.1,29.76,East,88,9.0,11.0,40,0.00,,,0.00,418,HR-IXPWINDi_r2_v1.2.,2013-01-03 17:48:00,
2013-01-03 09:53:00,54.4,28.0,29.76,East,82,9.0,11.0,36,0.00,,,0.00,429,HR-IXPWINDi_r2_v1.2.,2013-01-03 17:53:00,
2013-01-03 09:58:00,55.3,28.1,29.76,ENE,78,8.0,10.0,35,0.00,,,0.00,441,HR-IXPWINDi_r2_v1.2.,2013-01-03 17:58:00,
2013-01-03 10:03:00,55.4,30.2,29.76,East,88,6.0,10.0,38,0.00,,,0.00,452,HR-IXPWINDi_r2_v1.2.,2013-01-03 18:03:00,
2013-01-03 10:08:00,55.8,29.2,29.76,East,96,3.0,10.0,36,0.00,,,0.00,462,HR-IXPWINDi_r2_v1.2.,2013-01-03 18:08:00,
2013-01-03 10:13:00,56.4,29.1,29.76,ESE,105,7.0,10.0,35,0.00,,,0.00,473,HR-IXPWINDi_r2_v1.2.,2013-01-03 18:13:00,
2013-01-03 10:19:00,57.1,28.3,29.76,ESE,108,5.0,10.0,33,0.00,,,0.00,482,HR-IXPWINDi_r2_v1.2.,2013-01-03 18:19:00,
2013-01-03 10:24:00,57.8,27.3,29.76,East,90,5.0,8.0,31,0.00,,,0.00,490,HR-IXPWINDi_r2_v1.2.,2013-01-03 18:24:00,
2013-01-03 10:29:00,57.9,26.6,29.76,ENE,70,4.0,8.0,30,0.00,,,0.00,501,HR-IXPWINDi_r2_v1.2.,2013-01-03 18:29:00,
2013-01-03 10:34:00,58.5,28.0,29.76,East,88,7.0,8.0,31,0.00,,,0.00,510,HR-IXPWINDi_r2_v1.2.,2013-01-03 18:34:00,
2013-01-03 10:39:00,59.0,27.6,29.76,East,101,7.0,8.0,30,0.00,,,0.00,517,HR-IXPWINDi_r2_v1.2.,2013-01-03 18:39:00,
2013-01-03 10:45:00,59.5,26.4,29.76,East,94,6.0,8.0,28,0.00,,,0.00,524,HR-IXPWINDi_r2_v1.2.,2013-01-03 18:45:00,
2013-01-03 10:50:00,59.9,26.7,29.76,East,94,5.0,7.0,28,0.00,,,0.00,529,HR-IXPWINDi_r2_v1.2.,2013-01-03 18:50:00,
2013-01-03 10:55:00,60.3,26.2,29.76,ENE,69,3.0,7.0,27,0.00,,,0.00,534,HR-IXPWINDi_r2_v1.2.,2013-01-03 18:55:00,
2013-01-03 11:00:00,60.6,26.4,29.76,ENE,66,5.0,6.0,27,0.00,,,0.00,545,HR-IXPWINDi_r2_v1.2.,2013-01-03 19:00:00,
2013-01-03 11:06:00,60.8,25.7,29.75,ENE,67,5.0,5.0,26,0.00,,,0.00,552,HR-IXPWINDi_r2_v1.2.,2013-01-03 19:06:00,
2013-01-03 11:11:00,60.9,25.8,29.75,ENE,66,2.0,5.0,26,0.00,,,0.00,559,HR-IXPWINDi_r2_v1.2.,2013-01-03 19:11:00,
2013-01-03 11:16:00,61.2,27.8,29.75,NNE,28,3.0,5.0,28,0.00,,,0.00,564,HR-IXPWINDi_r2_v1.2.,2013-01-03 19:16:00,
2013-01-03 11:52:00,53.2,38.3,29.75,North,5,3.0,7.0,57,0.00,,,0.00,584,HR-IXPWINDi_r2_v1.2.,2013-01-03 19:52:00,
2013-01-03 11:57:00,53.5,39.5,29.74,WNW,292,3.0,5.0,59,0.00,,,0.00,585,HR-IXPWINDi_r2_v1.2.,2013-01-03 19:57:00,
2013-01-03 12:02:00,53.9,40.3,29.74,NW,311,1.0,5.0,60,0.00,,,0.00,585,HR-IXPWINDi_r2_v1.2.,2013-01-03 20:02:00,
2013-01-03 12:08:00,53.7,40.5,29.74,NW,304,4.0,6.0,61,0.00,,,0.00,585,HR-IXPWINDi_r2_v1.2.,2013-01-03 20:08:00,
2013-01-03 12:13:00,53.5,41.2,29.74,WNW,292,4.0,6.0,63,0.00,,,0.00,577,HR-IXPWINDi_r2_v1.2.,2013-01-03 20:13:00,
2013-01-03 12:18:00,53.4,39.0,29.74,NW,312,3.0,4.0,58,0.00,,,0.00,582,HR-IXPWINDi_r2_v1.2.,2013-01-03 20:18:00,
2013-01-03 12:23:00,53.7,35.0,29.74,NW,317,3.0,5.0,49,0.00,,,0.00,585,HR-IXPWINDi_r2_v1.2.,2013-01-03 20:23:00,
2013-01-03 12:28:00,54.5,35.2,29.74,NW,310,5.0,5.0,48,0.00,,,0.00,585,HR-IXPWINDi_r2_v1.2.,2013-01-03 20:28:00,
2013-01-03 12:33:00,54.7,38.3,29.74,WNW,292,4.0,5.0,54,0.00,,,0.00,582,HR-IXPWINDi_r2_v1.2.,2013-01-03 20:33:00,
2013-01-03 12:38:00,54.9,39.0,29.74,NW,325,3.0,5.0,55,0.00,,,0.00,580,HR-IXPWINDi_r2_v1.2.,2013-01-03 20:38:00,
2013-01-03 12:43:00,54.8,38.9,29.74,West,281,3.0,5.0,55,0.00,,,0.00,577,HR-IXPWINDi_r2_v1.2.,2013-01-03 20:43:00,
2013-01-03 12:49:00,55.3,37.9,29.74,NW,306,2.0,6.0,52,0.00,,,0.00,571,HR-IXPWINDi_r2_v1.2.,2013-01-03 20:49:00,
2013-01-03 12:54:00,55.5,38.6,29.73,WNW,289,2.0,6.0,53,0.00,,,0.00,570,HR-IXPWINDi_r2_v1.2.,2013-01-03 20:54:00,
2013-01-03 12:59:00,55.9,39.5,29.73,West,275,3.0,5.0,54,0.00,,,0.00,566,HR-IXPWINDi_r2_v1.2.,2013-01-03 20:59:00,
2013-01-03 13:04:00,56.2,41.1,29.73,West,270,1.0,5.0,57,0.00,,,0.00,564,HR-IXPWINDi_r2_v1.2.,2013-01-03 21:04:00,
2013-01-03 13:09:00,56.3,42.5,29.73,WSW,254,2.0,6.0,60,0.00,,,0.00,559,HR-IXPWINDi_r2_v1.2.,2013-01-03 21:09:00,
2013-01-03 13:14:00,56.8,37.8,29.73,West,273,0.0,6.0,49,0.00,,,0.00,552,HR-IXPWINDi_r2_v1.2.,2013-01-03 21:14:00,
2013-01-03 13:19:00,57.3,38.8,29.73,West,263,0.0,4.0,50,0.00,,,0.00,550,HR-IXPWINDi_r2_v1.2.,2013-01-03 21:19:00,
2013-01-03 13:25:00,58.7,39.0,29.73,SW,236,0.0,3.0,48,0.00,,,0.00,485,HR-IXPWINDi_r2_v1.2.,2013-01-03 21:25:00,
2013-01-03 13:30:00,59.1,37.2,29.73,SW,227,1.0,3.0,44,0.00,,,0.00,318,HR-IXPWINDi_r2_v1.2.,2013-01-03 21:30:00,
2013-01-03 13:35:00,59.4,41.2,29.72,West,279,5.0,5.0,51,0.00,,,0.00,137,HR-IXPWINDi_r2_v1.2.,2013-01-03 21:35:00,
2013-01-03 13:40:00,58.0,39.4,29.73,West,272,4.0,7.0,50,0.00,,,0.00,56,HR-IXPWINDi_r2_v1.2.,2013-01-03 21:40:00,
2013-01-03 13:45:00,56.9,40.9,29.73,WNW,285,2.0,7.0,55,0.00,,,0.00,40,HR-IXPWINDi_r2_v1.2.,2013-01-03 21:45:00,
2013-01-03 13:50:00,56.2,41.6,29.73,West,275,4.0,5.0,58,0.00,,,0.00,39,HR-IXPWINDi_r2_v1.2.,2013-01-03 21:50:00,
2013-01-03 13:55:00,56.0,42.3,29.73,WNW,298,4.0,5.0,60,0.00,,,0.00,51,HR-IXPWINDi_r2_v1.2.,2013-01-03 21:55:00,
2013-01-03 14:00:00,55.9,43.4,29.73,WNW,294,2.0,5.0,63,0.00,,,0.00,165,HR-IXPWINDi_r2_v1.2.,2013-01-03 22:00:00,
2013-01-03 14:05:00,55.7,44.1,29.73,WNW,285,5.0,6.0,65,0.00,,,0.00,299,HR-IXPWINDi_r2_v1.2.,2013-01-03 22:05:00,
2013-01-03 14:10:00,55.1,44.7,29.73,NW,323,3.0,7.0,68,0.00,,,0.00,390,HR-IXPWINDi_r2_v1.2.,2013-01-03 22:10:00,
2013-01-03 14:15:00,54.8,42.0,29.73,WNW,291,0.0,7.0,62,0.00,,,0.00,359,HR-IXPWINDi_r2_v1.2.,2013-01-03 22:15:00,
2013-01-03 14:21:00,55.2,38.8,29.73,NNW,341,2.0,7.0,54,0.00,,,0.00,214,HR-IXPWINDi_r2_v1.2.,2013-01-03 22:21:00,
2013-01-03 14:26:00,55.8,37.9,29.73,NNW,346,1.0,4.0,51,0.00,,,0.00,102,HR-IXPWINDi_r2_v1.2.,2013-01-03 22:26:00,
2013-01-03 14:31:00,56.4,35.8,29.73,NW,311,2.0,4.0,46,0.00,,,0.00,42,HR-IXPWINDi_r2_v1.2.,2013-01-03 22:31:00,
2013-01-03 14:36:00,56.6,34.3,29.74,NW,304,3.0,6.0,43,0.00,,,0.00,33,HR-IXPWINDi_r2_v1.2.,2013-01-03 22:36:00,
2013-01-03 14:41:00,56.4,33.6,29.74,NW,317,2.0,6.0,42,0.00,,,0.00,33,HR-IXPWINDi_r2_v1.2.,2013-01-03 22:41:00,
2013-01-03 14:46:00,56.7,32.6,29.74,WNW,283,3.0,5.0,40,0.00,,,0.00,33,HR-IXPWINDi_r2_v1.2.,2013-01-03 22:46:00,
2013-01-03 14:51:00,57.1,37.6,29.74,NW,309,4.0,7.0,48,0.00,,,0.00,33,HR-IXPWINDi_r2_v1.2.,2013-01-03 22:51:00,
2013-01-03 14:57:00,56.7,38.2,29.75,NW,313,4.0,7.0,50,0.00,,,0.00,33,HR-IXPWINDi_r2_v1.2.,2013-01-03 22:57:00,
2013-01-03 15:02:00,56.7,37.7,29.75,WNW,293,5.0,7.0,49,0.00,,,0.00,32,HR-IXPWINDi_r2_v1.2.,2013-01-03 23:02:00,
2013-01-03 15:07:00,56.8,38.3,29.75,NW,306,5.0,7.0,50,0.00,,,0.00,32,HR-IXPWINDi_r2_v1.2.,2013-01-03 23:07:00,
2013-01-03 15:12:00,56.9,38.4,29.75,North,5,2.0,7.0,50,0.00,,,0.00,32,HR-IXPWINDi_r2_v1.2.,2013-01-03 23:12:00,
2013-01-03 15:18:00,56.8,39.8,29.75,NNW,334,3.0,6.0,53,0.00,,,0.00,32,HR-IXPWINDi_r2_v1.2.,2013-01-03 23:18:00,
2013-01-03 15:23:00,57.0,39.5,29.74,NW,309,4.0,6.0,52,0.00,,,0.00,30,HR-IXPWINDi_r2_v1.2.,2013-01-03 23:23:00,
2013-01-03 15:28:00,57.0,38.5,29.75,NNW,328,2.0,6.0,50,0.00,,,0.00,30,HR-IXPWINDi_r2_v1.2.,2013-01-03 23:28:00,
2013-01-03 15:33:00,56.8,39.8,29.75,NNW,329,4.0,6.0,53,0.00,,,0.00,30,HR-IXPWINDi_r2_v1.2.,2013-01-03 23:33:00,
2013-01-03 15:39:00,56.8,41.2,29.75,NW,311,4.0,5.0,56,0.00,,,0.00,30,HR-IXPWINDi_r2_v1.2.,2013-01-03 23:39:00,
2013-01-03 15:44:00,56.3,42.5,29.75,NNW,331,4.0,6.0,60,0.00,,,0.00,30,HR-IXPWINDi_r2_v1.2.,2013-01-03 23:44:00,
2013-01-03 15:49:00,56.1,43.2,29.75,NW,306,0.0,6.0,62,0.00,,,0.00,30,HR-IXPWINDi_r2_v1.2.,2013-01-03 23:49:00,
2013-01-03 15:55:00,56.1,44.0,29.75,NW,321,3.0,5.0,64,0.00,,,0.00,30,HR-IXPWINDi_r2_v1.2.,2013-01-03 23:55:00,
2013-01-03 16:00:00,55.9,44.3,29.75,NW,307,3.0,4.0,65,0.00,,,0.00,30,HR-IXPWINDi_r2_v1.2.,2013-01-04 00:00:00,
2013-01-03 16:05:00,55.9,45.1,29.75,NW,304,4.0,4.0,67,0.00,,,0.00,30,HR-IXPWINDi_r2_v1.2.,2013-01-04 00:05:00,
2013-01-03 16:10:00,55.9,45.1,29.75,NW,308,1.0,4.0,67,0.00,,,0.00,30,HR-IXPWINDi_r2_v1.2.,2013-01-04 00:10:00,
2013-01-03 16:15:00,56.1,44.8,29.75,NW,323,0.0,4.0,66,0.00,,,0.00,30,HR-IXPWINDi_r2_v1.2.,2013-01-04 00:15:00,
2013-01-03 16:20:00,56.2,43.3,29.75,NW,319,0.0,3.0,62,0.00,,,0.00,32,HR-IXPWINDi_r2_v1.2.,2013-01-04 00:20:00,
2013-01-03 16:26:00,56.3,43.8,29.75,NW,319,0.0,3.0,63,0.00,,,0.00,35,HR-IXPWINDi_r2_v1.2.,2013-01-04 00:26:00,
2013-01-03 16:31:00,56.4,43.9,29.75,NW,304,2.0,3.0,63,0.00,,,0.00,35,HR-IXPWINDi_r2_v1.2.,2013-01-04 00:31:00,
2013-01-03 16:37:00,56.0,45.5,29.75,WNW,293,2.0,4.0,68,0.00,,,0.00,30,HR-IXPWINDi_r2_v1.2.,2013-01-04 00:37:00,
2013-01-03 16:43:00,55.8,46.1,29.75,WNW,282,2.0,4.0,70,0.00,,,0.00,25,HR-IXPWINDi_r2_v1.2.,2013-01-04 00:43:00,
2013-01-03 16:48:00,55.7,46.4,29.75,WSW,254,0.0,4.0,71,0.00,,,0.00,16,HR-IXPWINDi_r2_v1.2.,2013-01-04 00:48:00,
2013-01-03 16:53:00,55.5,46.6,29.75,WSW,249,0.0,4.0,72,0.00,,,0.00,11,HR-IXPWINDi_r2_v1.2.,2013-01-04 00:53:00,
2013-01-03 16:58:00,55.4,46.8,29.76,West,267,0.0,4.0,73,0.00,,,0.00,7,HR-IXPWINDi_r2_v1.2.,2013-01-04 00:58:00,
2013-01-03 17:03:00,55.2,47.0,29.76,West,275,2.0,4.0,74,0.00,,,0.00,5,HR-IXPWINDi_r2_v1.2.,2013-01-04 01:03:00,
2013-01-03 17:09:00,55.0,47.2,29.76,NW,319,2.0,3.0,75,0.00,,,0.00,0,HR-IXPWINDi_r2_v1.2.,2013-01-04 01:09:00,
2013-01-03 17:14:00,54.9,47.4,29.76,West,271,3.0,4.0,76,0.00,,,0.00,0,HR-IXPWINDi_r2_v1.2.,2013-01-04 01:14:00,
2013-01-03 17:19:00,54.7,47.6,29.76,NW,310,2.0,4.0,77,0.00,,,0.00,0,HR-IXPWINDi_r2_v1.2.,2013-01-04 01:19:00,
2013-01-03 17:25:00,54.6,47.5,29.76,West,280,1.0,4.0,77,0.00,,,0.00,0,HR-IXPWINDi_r2_v1.2.,2013-01-04 01:25:00,
2013-01-03 17:30:00,54.5,47.7,29.76,West,280,0.0,3.0,78,0.00,,,0.00,0,HR-IXPWINDi_r2_v1.2.,2013-01-04 01:30:00,
2013-01-03 17:35:00,54.3,47.9,29.76,West,280,1.0,2.0,79,0.00,,,0.00,0,HR-IXPWINDi_r2_v1.2.,2013-01-04 01:35:00,
2013-01-03 17:40:00,54.2,47.8,29.76,West,280,1.0,2.0,79,0.00,,,0.00,0,HR-IXPWINDi_r2_v1.2.,2013-01-04 01:40:00,
2013-01-03 17:45:00,54.1,48.0,29.76,NW,308,1.0,3.0,80,0.00,,,0.00,0,HR-IXPWINDi_r2_v1.2.,2013-01-04 01:45:00,
2013-01-03 17:51:00,54.1,48.3,29.77,NNW,347,0.0,3.0,81,0.00,,,0.00,0,HR-IXPWINDi_r2_v1.2.,2013-01-04 01:51:00,
2013-01-03 17:56:00,54.0,48.2,29.76,North,5,0.0,2.0,81,0.00,,,0.00,0,HR-IXPWINDi_r2_v1.2.,2013-01-04 01:56:00,
2013-01-03 18:01:00,54.0,48.6,29.76,NE,51,1.0,2.0,82,0.00,,,0.00,0,HR-IXPWINDi_r2_v1.2.,2013-01-04 02:01:00,
2013-01-03 18:06:00,53.9,48.5,29.76,ENE,62,0.0,2.0,82,0.00,,,0.00,0,HR-IXPWINDi_r2_v1.2.,2013-01-04 02:06:00,
2013-01-03 18:12:00,53.9,48.8,29.77,ENE,71,2.0,4.0,83,0.00,,,0.00,0,HR-IXPWINDi_r2_v1.2.,2013-01-04 02:12:00,
2013-01-03 18:17:00,53.8,48.7,29.77,ENE,59,0.0,4.0,83,0.00,,,0.00,0,HR-IXPWINDi_r2_v1.2.,2013-01-04 02:17:00,
2013-01-03 18:22:00,53.8,49.0,29.77,East,86,1.0,3.0,84,0.00,,,0.00,0,HR-IXPWINDi_r2_v1.2.,2013-01-04 02:22:00,
2013-01-03 18:27:00,53.7,48.9,29.77,ENE,63,3.0,3.0,84,0.00,,,0.00,0,HR-IXPWINDi_r2_v1.2.,2013-01-04 02:27:00,
2013-01-03 18:32:00,53.7,48.9,29.77,ENE,73,2.0,3.0,84,0.00,,,0.00,0,HR-IXPWINDi_r2_v1.2.,2013-01-04 02:32:00,
2013-01-03 18:37:00,53.7,48.9,29.76,East,94,3.0,5.0,84,0.00,,,0.00,0,HR-IXPWINDi_r2_v1.2.,2013-01-04 02:37:00,
2013-01-03 18:42:00,53.7,48.9,29.76,East,83,7.0,7.0,84,0.00,,,0.00,0,HR-IXPWINDi_r2_v1.2.,2013-01-04 02:42:00,
2013-01-03 18:48:00,53.7,47.9,29.76,East,80,6.0,7.0,81,0.00,,,0.00,0,HR-IXPWINDi_r2_v1.2.,2013-01-04 02:48:00,
2013-01-03 18:53:00,54.2,46.4,29.76,East,81,7.0,11.0,75,0.00,,,0.00,0,HR-IXPWINDi_r2_v1.2.,2013-01-04 02:53:00,
2013-01-03 18:58:00,54.7,45.4,29.75,East,81,7.0,11.0,71,0.00,,,0.00,0,HR-IXPWINDi_r2_v1.2.,2013-01-04 02:58:00,
2013-01-03 19:04:00,55.1,44.7,29.76,East,92,7.0,11.0,68,0.00,,,0.00,0,HR-IXPWINDi_r2_v1.2.,2013-01-04 03:04:00,
2013-01-03 19:09:00,55.6,43.6,29.76,East,79,6.0,11.0,64,0.00,,,0.00,0,HR-IXPWINDi_r2_v1.2.,2013-01-04 03:09:00,
2013-01-03 19:14:00,55.8,42.5,29.76,NE,55,3.0,10.0,61,0.00,,,0.00,0,HR-IXPWINDi_r2_v1.2.,2013-01-04 03:14:00,
2013-01-03 19:19:00,56.0,42.7,29.77,NE,49,3.0,10.0,61,0.00,,,0.00,0,HR-IXPWINDi_r2_v1.2.,2013-01-04 03:19:00,
2013-01-03 19:25:00,55.7,44.9,29.77,North,9,4.0,6.0,67,0.00,,,0.00,0,HR-IXPWINDi_r2_v1.2.,2013-01-04 03:25:00,
2013-01-03 19:30:00,55.4,45.7,29.77,NNW,344,2.0,4.0,70,0.00,,,0.00,0,HR-IXPWINDi_r2_v1.2.,2013-01-04 03:30:00,
2013-01-03 19:35:00,55.1,45.8,29.77,NE,42,2.0,4.0,71,0.00,,,0.00,0,HR-IXPWINDi_r2_v1.2.,2013-01-04 03:35:00,
2013-01-03 19:40:00,54.9,46.7,29.77,NNE,31,3.0,4.0,74,0.00,,,0.00,0,HR-IXPWINDi_r2_v1.2.,2013-01-04 03:40:00,
2013-01-03 19:46:00,54.8,47.0,29.77,ENE,58,2.0,5.0,75,0.00,,,0.00,0,HR-IXPWINDi_r2_v1.2.,2013-01-04 03:46:00,
2013-01-03 19:51:00,54.6,46.8,29.77,NNE,32,3.0,5.0,75,0.00,,,0.00,0,HR-IXPWINDi_r2_v1.2.,2013-01-04 03:51:00,
2013-01-03 19:56:00,54.6,47.5,29.77,NE,49,3.0,4.0,77,0.00,,,0.00,0,HR-IXPWINDi_r2_v1.2.,2013-01-04 03:56:00,
2013-01-03 20:02:00,54.4,46.9,29.77,NE,50,3.0,5.0,76,0.00,,,0.00,0,HR-IXPWINDi_r2_v1.2.,2013-01-04 04:02:00,
2013-01-03 20:07:00,54.4,46.9,29.77,ENE,63,2.0,5.0,76,0.00,,,0.00,0,HR-IXPWINDi_r2_v1.2.,2013-01-04 04:07:00,
2013-01-03 20:12:00,54.3,46.8,29.77,ENE,59,3.0,4.0,76,0.00,,,0.00,0,HR-IXPWINDi_r2_v1.2.,2013-01-04 04:12:00,
2013-01-03 20:17:00,54.3,47.2,29.78,NE,46,3.0,3.0,77,0.00,,,0.00,0,HR-IXPWINDi_r2_v1.2.,2013-01-04 04:17:00,
2013-01-03 20:22:00,54.4,47.3,29.78,NNE,32,2.0,4.0,77,0.00,,,0.00,0,HR-IXPWINDi_r2_v1.2.,2013-01-04 04:22:00,
2013-01-03 20:27:00,54.3,47.5,29.77,NE,50,4.0,5.0,78,0.00,,,0.00,0,HR-IXPWINDi_r2_v1.2.,2013-01-04 04:27:00,
2013-01-03 20:32:00,54.2,47.1,29.77,NE,50,3.0,5.0,77,0.00,,,0.00,0,HR-IXPWINDi_r2_v1.2.,2013-01-04 04:32:00,
2013-01-03 20:38:00,54.0,46.5,29.78,ENE,61,4.0,4.0,76,0.00,,,0.00,0,HR-IXPWINDi_r2_v1.2.,2013-01-04 04:38:00,
2013-01-03 20:43:00,54.0,46.5,29.78,ENE,76,4.0,5.0,76,0.00,,,0.00,0,HR-IXPWINDi_r2_v1.2.,2013-01-04 04:43:00,
2013-01-03 20:48:00,54.0,46.5,29.78,North,5,3.0,5.0,76,0.00,,,0.00,0,HR-IXPWINDi_r2_v1.2.,2013-01-04 04:48:00,
2013-01-03 20:53:00,53.9,46.5,29.78,NE,36,3.0,5.0,76,0.00,,,0.00,0,HR-IXPWINDi_r2_v1.2.,2013-01-04 04:53:00,
2013-01-03 20:58:00,53.9,46.5,29.78,NE,42,4.0,4.0,76,0.00,,,0.00,0,HR-IXPWINDi_r2_v1.2.,2013-01-04 04:58:00,
2013-01-03 21:00:00,53.9,46.5,29.78,NE,41,3.0,4.0,76,0.00,,,0.00,0,HR-IXPWINDi_r2_v1.2.,2013-01-04 05:00:00,
2013-01-03 21:05:00,53.9,46.5,29.78,NE,38,2.0,4.0,76,0.00,,,0.00,0,HR-IXPWINDi_r2_v1.2.,2013-01-04 05:05:00,
2013-01-03 21:10:00,53.8,46.7,29.78,NNE,28,2.0,3.0,77,0.00,,,0.00,0,HR-IXPWINDi_r2_v1.2.,2013-01-04 05:10:00,
2013-01-03 21:15:00,53.6,46.5,29.78,NE,42,2.0,3.0,77,0.00,,,0.00,0,HR-IXPWINDi_r2_v1.2.,2013-01-04 05:15:00,
2013-01-03 21:21:00,53.5,46.4,29.78,NE,42,2.0,3.0,77,0.00,,,0.00,0,HR-IXPWINDi_r2_v1.2.,2013-01-04 05:21:00,
2013-01-03 21:26:00,53.5,46.4,29.78,NE,41,2.0,3.0,77,0.00,,,0.00,0,HR-IXPWINDi_r2_v1.2.,2013-01-04 05:26:00,
2013-01-03 21:31:00,53.5,46.4,29.78,NE,43,2.0,3.0,77,0.00,,,0.00,0,HR-IXPWINDi_r2_v1.2.,2013-01-04 05:31:00,
2013-01-03 21:36:00,53.4,46.3,29.78,NE,43,0.0,3.0,77,0.00,,,0.00,0,HR-IXPWINDi_r2_v1.2.,2013-01-04 05:36:00,
2013-01-03 21:41:00,53.2,45.8,29.79,NE,44,1.0,3.0,76,0.00,,,0.00,0,HR-IXPWINDi_r2_v1.2.,2013-01-04 05:41:00,
2013-01-03 21:47:00,53.1,44.6,29.79,ENE,69,3.0,3.0,73,0.00,,,0.00,0,HR-IXPWINDi_r2_v1.2.,2013-01-04 05:47:00,
2013-01-03 21:52:00,53.1,43.1,29.79,East,80,5.0,5.0,69,0.00,,,0.00,0,HR-IXPWINDi_r2_v1.2.,2013-01-04 05:52:00,
2013-01-03 21:57:00,53.3,42.6,29.79,East,80,3.0,5.0,67,0.00,,,0.00,0,HR-IXPWINDi_r2_v1.2.,2013-01-04 05:57:00,
2013-01-03 22:02:00,53.5,43.1,29.79,East,86,5.0,6.0,68,0.00,,,0.00,0,HR-IXPWINDi_r2_v1.2.,2013-01-04 06:02:00,
2013-01-03 22:07:00,53.5,43.5,29.79,East,82,5.0,6.0,69,0.00,,,0.00,0,HR-IXPWINDi_r2_v1.2.,2013-01-04 06:07:00,
2013-01-03 22:12:00,53.7,43.7,29.80,ENE,60,4.0,6.0,69,0.00,,,0.00,0,HR-IXPWINDi_r2_v1.2.,2013-01-04 06:12:00,
2013-01-03 22:18:00,54.0,44.4,29.80,NNE,15,3.0,5.0,70,0.00,,,0.00,0,HR-IXPWINDi_r2_v1.2.,2013-01-04 06:18:00,
2013-01-03 22:23:00,53.9,44.7,29.80,NE,42,2.0,5.0,71,0.00,,,0.00,0,HR-IXPWINDi_r2_v1.2.,2013-01-04 06:23:00,
2013-01-03 22:28:00,53.9,44.7,29.80,NNE,27,3.0,4.0,71,0.00,,,0.00,0,HR-IXPWINDi_r2_v1.2.,2013-01-04 06:28:00,
2013-01-03 22:33:00,53.8,45.3,29.80,NE,39,4.0,5.0,73,0.00,,,0.00,0,HR-IXPWINDi_r2_v1.2.,2013-01-04 06:33:00,
2013-01-03 22:39:00,53.7,45.9,29.80,NE,47,4.0,5.0,75,0.00,,,0.00,0,HR-IXPWINDi_r2_v1.2.,2013-01-04 06:39:00,
2013-01-03 22:44:00,53.5,46.1,29.80,ENE,63,3.0,5.0,76,0.00,,,0.00,0,HR-IXPWINDi_r2_v1.2.,2013-01-04 06:44:00,
2013-01-03 22:49:00,53.4,46.3,29.80,NE,55,4.0,5.0,77,0.00,,,0.00,0,HR-IXPWINDi_r2_v1.2.,2013-01-04 06:49:00,
2013-01-03 22:54:00,53.5,46.8,29.80,NE,50,3.0,5.0,78,0.00,,,0.00,0,HR-IXPWINDi_r2_v1.2.,2013-01-04 06:54:00,
2013-01-03 22:59:00,53.4,47.0,29.80,NE,52,3.0,5.0,79,0.00,,,0.00,0,HR-IXPWINDi_r2_v1.2.,2013-01-04 06:59:00,
2013-01-03 23:04:00,53.3,47.2,29.80,ENE,66,4.0,5.0,80,0.00,,,0.00,0,HR-IXPWINDi_r2_v1.2.,2013-01-04 07:04:00,
2013-01-03 23:09:00,53.2,47.5,29.80,ENE,69,3.0,4.0,81,0.00,,,0.00,0,HR-IXPWINDi_r2_v1.2.,2013-01-04 07:09:00,
2013-01-03 23:14:00,53.1,47.0,29.80,ENE,68,3.0,4.0,80,0.00,,,0.00,0,HR-IXPWINDi_r2_v1.2.,2013-01-04 07:14:00,
2013-01-03 23:20:00,53.2,46.8,29.79,ENE,74,4.0,5.0,79,0.00,,,0.00,0,HR-IXPWINDi_r2_v1.2.,2013-01-04 07:20:00,
2013-01-03 23:25:00,53.5,46.8,29.79,East,85,6.0,6.0,78,0.00,,,0.00,0,HR-IXPWINDi_r2_v1.2.,2013-01-04 07:25:00,
2013-01-03 23:30:00,53.6,45.8,29.79,East,83,7.0,7.0,75,0.00,,,0.00,0,HR-IXPWINDi_r2_v1.2.,2013-01-04 07:30:00,
2013-01-03 23:35:00,53.7,45.2,29.79,East,89,6.0,7.0,73,0.00,,,0.00,0,HR-IXPWINDi_r2_v1.2.,2013-01-04 07:35:00,
2013-01-03 23:40:00,54.0,44.0,29.79,East,90,7.0,8.0,69,0.00,,,0.00,0,HR-IXPWINDi_r2_v1.2.,2013-01-04 07:40:00,
2013-01-03 23:46:00,54.3,44.3,29.79,East,90,9.0,9.0,69,0.00,,,0.00,0,HR-IXPWINDi_r2_v1.2.,2013-01-04 07:46:00,
2013-01-03 23:51:00,54.7,43.1,29.79,East,91,10.0,10.0,65,0.00,,,0.00,0,HR-IXPWINDi_r2_v1.2.,2013-01-04 07:51:00,
2013-01-03 23:56:00,55.0,42.2,29.79,East,89,10.0,10.0,62,0.00,,,0.00,0,HR-IXPWINDi_r2_v1.2.,2013-01-04 07:56:00,